TimeSAST,TemperatureF,Dew PointF,Humidity,Sea Level PressureIn,VisibilityMPH,Wind Direction,Wind SpeedMPH,Gust SpeedMPH,PrecipitationIn,Events,Conditions,WindDirDegrees,DateUTC
12:00 AM,86.0,23.0,10,29.98,-9999.0,SSW,8.1,-,N/A,,Unknown,210,2014-01-17 22:00:00
1:00 AM,84.2,30.2,14,29.98,-9999.0,South,9.2,-,N/A,,Clear,190,2014-01-17 23:00:00
2:00 AM,85,25,5,,25,SSE,10.4,,,,Mostly Cloudy,160,2014-01-18 00:00:00
2:00 AM,84.2,26.6,12,29.98,-9999.0,SSE,9.2,-,N/A,,Clear,160,2014-01-18 00:00:00
3:00 AM,82.4,28.4,14,29.98,-9999.0,SSW,4.6,-,N/A,,Clear,200,2014-01-18 01:00:00
4:00 AM,78.8,32.0,18,29.95,-9999.0,WSW,1.2,-,N/A,,Clear,250,2014-01-18 02:00:00
5:00 AM,81,35,11,,25,SSW,5.8,,,,Mostly Cloudy,200,2014-01-18 03:00:00
5:00 AM,80.6,33.8,18,29.98,-9999.0,SSW,4.6,-,N/A,,Clear,200,2014-01-18 03:00:00
6:00 AM,78.8,35.6,21,29.98,-9999.0,WSW,8.1,-,N/A,,Clear,240,2014-01-18 04:00:00
7:00 AM,78.8,39.2,24,29.98,-9999.0,SSW,12.7,-,N/A,,Clear,200,2014-01-18 05:00:00
8:00 AM,82,41,14,,25,SW,10.4,,,,Mostly Cloudy,230,2014-01-18 06:00:00
8:00 AM,80.6,41.0,24,30.04,-9999.0,SW,9.2,-,N/A,,Clear,230,2014-01-18 06:00:00
9:00 AM,80.6,41.0,24,30.01,-9999.0,SSW,12.7,-,N/A,,Clear,210,2014-01-18 07:00:00
10:00 AM,84.2,41.0,22,30.01,-9999.0,SW,9.2,-,N/A,,Clear,220,2014-01-18 08:00:00
10:44 AM,89.6,37.4,16,30.04,-9999.0,SSW,11.5,-,N/A,,Clear,210,2014-01-18 08:44:00
11:00 AM,89,36,8,,25,SW,13.8,,,,Partly Cloudy,220,2014-01-18 09:00:00
11:00 AM,87.8,35.6,16,30.01,-9999.0,SW,12.7,-,N/A,,Clear,220,2014-01-18 09:00:00
12:00 PM,91.4,35.6,14,30.01,-9999.0,SSW,10.4,-,N/A,,Clear,200,2014-01-18 10:00:00
1:00 PM,93.2,35.6,13,30.01,-9999.0,SSW,12.7,-,N/A,,Clear,210,2014-01-18 11:00:00
2:00 PM,95,31,5,,25,South,11.5,,,,Scattered Clouds,170,2014-01-18 12:00:00
2:00 PM,95.0,32.0,11,29.98,-9999.0,South,10.4,-,N/A,,Clear,170,2014-01-18 12:00:00
3:00 PM,95.0,33.8,12,29.95,-9999.0,SSE,10.4,-,N/A,,Clear,160,2014-01-18 13:00:00
4:00 PM,95.0,33.8,12,29.95,-9999.0,SW,12.7,-,N/A,,Clear,220,2014-01-18 14:00:00
5:00 PM,96,34,5,,25,SSW,11.5,,,,Scattered Clouds,210,2014-01-18 15:00:00
5:00 PM,95.0,33.8,12,29.92,-9999.0,SSW,11.5,-,N/A,,Clear,210,2014-01-18 15:00:00
6:00 PM,95.0,35.6,12,29.92,-9999.0,SSW,13.8,-,N/A,,Clear,200,2014-01-18 16:00:00
7:00 PM,91.4,35.6,14,29.92,-9999.0,SSW,12.7,-,N/A,,Clear,210,2014-01-18 17:00:00
8:00 PM,91,41,10,,25,SSW,4.6,,,,Partly Cloudy,200,2014-01-18 18:00:00
8:00 PM,89.6,39.2,17,29.95,-9999.0,SSW,4.6,-,N/A,,Clear,200,2014-01-18 18:00:00
9:00 PM,86.0,35.6,17,29.92,-9999.0,WSW,3.5,-,N/A,,Unknown,250,2014-01-18 19:00:00
10:00 PM,89.6,37.4,16,29.95,-9999.0,WSW,9.2,-,N/A,,Unknown,250,2014-01-18 20:00:00
11:00 PM,87,39,10,,,SW,9.2,,,,,230,2014-01-18 21:00:00
11:00 PM,86.0,39.2,19,29.98,-9999.0,SW,8.1,-,N/A,,Unknown,230,2014-01-18 21:00:00